Other Surface Observations
Issued by NWS Jacksonville, FL

Home | Current Version | Previous Version | Text Only | Print | Product List | Glossary On
Versions: 1 2 3 4 5 6 7 8 9 10 11 12 13 14 15 16 17 18 19 20 21 22 23 24 25 26 27 28 29 30 31 32 33 34 35 36 37 38 39 40 41 42 43 44 45 46 47 48 49 50
000
SXUS52 KJAX 070013
OSOJAX
OTHER SURFACE OBSERVATIONS
NATIONAL WEATHER SERVICE JACKSONVILLE FL
700 PM EST FRI MAR 06 2015

FLZ020>025-030>033-035>038-040-070100-
...FLORIDA...

CITY           SKY/WX    TMP DP  RH WIND       PRES   REMARKS
CECIL FIELD    CLOUDY    45  43  93 N7        30.37R FOG
HERLONG FIELD  NOT AVBL
FERNANDINA BCH NOT AVBL
LAKE CITY      CLOUDY    45  45 100 NE7       30.36R
JUNIPER SPGS   NOT AVBL
BUNNELL        NOT AVBL
KEYSTONE HGTS  CLOUDY    46  46 100 NE9       30.35R
$$

GAZ132>136-149>154-162>166-070100-
...GEORGIA...

CITY           SKY/WX    TMP DP  RH WIND       PRES   REMARKS
JESUP          CLOUDY    48  43  81 NE3       30.40R
HOMERVILLE     CLOUDY    46  43  87 CALM      30.39S
SWAINSBORO     FAIR      46  36  66 CALM      30.39S
CORDELE        NOT AVBL
EASTMAN        FAIR      45  42  91 CALM      30.40F
$$

PLEASE NOTE:  THESE OBSERVATIONS ARE NOT QUALITY CONTROLLED AND MAY
NOT BE AVAILABLE AT ALL TIMES.
$$


USA.gov is the U.S. government's official web portal to all federal, state and local government web resources and services.